GFSNGP_250_rhum_315.txt.gz
RH
26 26 24 24 28 24 22 24 22 24 19 19 16 19 18 20 22 22 22 21 21 21 20 20 20 20 20 20 20 19 19 19 18 18 19 20 23 24 26 23 15 11 10 11
30 27 29 34 31 31 30 24 22 24 24 20 20 21 23 23 23 24 24 21 20 18 17 16 16 15 15 16 17 17 18 18 18 18 18 17 19 20 21 23 24 16 11 11
34 31 31 33 35 33 32 30 26 24 24 26 25 24 24 25 23 21 19 18 15 13 11 11 11 11 12 13 15 16 17 17 16 16 16 17 18 20 20 20 22 25 18 14
24 24 26 28 31 30 29 27 26 26 25 26 28 28 27 24 21 18 13 10 8 8 8 8 9 9 10 11 14 16 18 20 21 18 17 18 19 20 21 21 21 25 26 25
14 15 16 19 20 21 24 27 24 23 24 24 24 22 21 19 13 9 9 9 8 8 8 9 9 9 10 10 12 16 19 23 24 23 19 18 20 22 24 25 28 34 37 35
11 10 11 12 13 15 16 20 22 22 22 23 22 21 18 10 10 9 9 9 9 9 9 9 10 11 12 13 14 16 20 25 26 26 24 21 22 24 27 31 32 34 35 40
14 11 11 11 12 15 17 18 20 21 21 21 21 16 11 11 11 11 11 11 10 10 10 10 11 12 12 13 14 16 18 23 26 30 31 30 28 27 27 28 29 28 29 29
11 11 11 13 12 16 18 19 19 19 20 20 14 13 14 15 15 15 14 14 13 12 12 12 13 14 15 16 16 18 19 20 21 23 24 25 26 28 28 28 28 26 26 24
12 13 14 16 21 23 24 24 22 20 16 14 15 17 18 19 18 18 18 18 18 19 18 18 18 18 19 20 20 20 20 20 19 19 19 19 19 19 18 18 18 18 18 17
15 19 24 28 30 30 26 22 17 17 18 19 19 18 18 18 21 24 26 26 25 26 26 27 28 29 30 30 32 32 31 31 31 31 31 30 30 28 26 25 24 23 21 20
25 30 32 31 29 26 23 23 26 27 28 31 40 45 47 48 47 46 46 48 50 50 51 53 54 54 54 54 55 55 53 51 50 48 45 42 39 37 36 34 33 31 29 27
34 33 33 34 34 35 35 40 44 48 51 53 55 56 52 48 40 37 36 34 32 32 34 35 36 36 36 36 37 36 35 34 32 31 30 30 29 28 26 24 22 22 20 19
37 39 43 48 53 56 57 61 67 61 62 61 53 43 35 33 33 33 33 33 34 36 39 44 49 52 52 52 51 52 52 52 49 44 39 37 31 26 21 19 18 16 16 15
46 56 58 66 69 70 74 69 63 65 64 57 44 43 41 34 34 42 49 57 62 64 62 59 58 56 54 54 50 44 40 36 32 31 31 29 26 23 21 18 17 17 16 15
70 79 84 81 82 77 75 74 75 77 68 60 51 43 37 41 54 66 72 77 79 76 68 57 45 42 42 40 36 34 34 33 33 32 30 28 26 23 20 19 18 18 18 17
95 92 93 93 87 78 82 84 80 79 77 71 65 55 46 57 68 79 86 86 82 76 66 59 52 43 39 38 37 36 35 36 37 36 33 31 27 23 19 17 16 14 12 11
99 100 97 90 84 86 89 86 87 89 83 75 65 56 55 63 74 89 90 88 85 82 72 60 56 54 53 54 55 51 47 44 42 38 32 27 21 17 15 13 10 8 8 7
98 100 99 91 85 93 91 88 86 85 81 78 69 57 62 72 81 90 95 92 91 89 82 76 74 70 66 66 62 57 52 47 42 35 28 22 19 16 12 8 7 6 6 6
99 100 98 94 94 100 97 90 89 88 89 88 81 75 75 77 84 91 94 93 90 91 87 79 74 72 72 69 59 52 48 41 34 27 21 16 12 9 7 6 6 6 6 6
95 96 94 99 99 100 100 95 94 93 91 88 84 81 81 84 88 92 92 92 91 89 85 80 74 69 68 64 54 49 42 34 26 18 14 11 8 7 6 6 6 5 6 6
95 95 91 94 96 100 98 96 95 94 91 86 81 77 78 89 96 91 89 89 86 85 82 80 75 68 66 58 47 41 33 24 16 12 10 8 7 6 6 6 6 6 6 7
84 83 83 90 98 98 92 93 91 89 86 80 76 75 83 95 97 94 89 88 86 83 76 72 70 66 61 50 43 34 22 15 11 9 8 7 6 6 6 6 6 6 6 6
94 90 93 98 97 93 92 92 87 84 83 78 77 78 90 96 96 93 90 88 85 78 68 64 69 62 50 43 34 22 14 11 10 8 7 7 6 6 6 6 6 6 5 5
99 98 96 94 96 94 90 83 84 82 78 77 80 82 92 95 93 92 88 82 77 68 64 68 66 53 44 35 23 15 11 10 9 8 7 7 6 6 6 6 5 5 5 5
90 91 92 89 88 84 85 83 80 80 76 79 79 86 95 92 90 90 84 77 73 70 73 69 54 47 37 25 17 13 11 10 9 7 8 7 7 7 6 5 6 6 6 6
86 89 86 84 85 87 82 80 79 75 76 75 80 90 93 92 94 92 85 75 73 75 72 59 49 39 28 20 14 12 11 10 8 8 8 7 7 6 6 6 6 6 7 7
89 88 89 89 86 82 81 82 78 75 73 77 86 91 93 94 92 86 77 75 76 74 64 51 40 29 22 15 13 12 11 10 8 9 8 8 7 6 6 7 7 7 7 7

GFSNGP_250_rhum_318.txt.gz
RH
19 19 19 16 19 22 23 23 22 28 25 26 21 26 24 24 24 22 20 19 18 18 18 18 20 21 21 21 21 21 22 23 23 23 23 22 23 24 24 25 25 25 24 24
25 22 23 26 23 20 25 30 33 34 32 30 32 30 29 27 27 25 23 21 20 20 22 23 22 22 22 22 23 24 24 25 24 23 24 23 24 22 22 21 21 20 20 20
26 24 25 28 27 28 28 26 29 34 36 36 35 34 32 30 27 26 23 23 25 26 25 24 23 22 20 19 18 18 18 19 21 22 23 22 21 20 20 20 20 19 19 19
15 15 16 18 22 25 28 29 29 28 28 32 34 34 32 28 26 25 25 25 23 20 19 19 18 18 16 13 11 10 10 10 11 13 14 16 17 17 17 17 17 16 16 17
14 14 14 14 16 16 17 18 18 19 20 21 23 24 27 26 27 26 24 23 22 20 18 16 11 9 9 9 9 9 9 10 10 11 11 13 15 17 17 18 18 18 17 16
16 17 16 16 14 15 14 16 15 15 16 17 18 20 21 22 21 22 22 21 19 18 12 10 10 10 10 10 10 10 10 10 10 11 12 13 14 16 20 22 23 24 24 23
19 20 21 19 19 18 19 16 15 14 15 16 17 19 20 20 20 20 20 19 12 10 10 11 11 11 10 10 11 11 12 12 12 12 13 14 15 17 21 25 27 27 27 24
20 20 20 20 19 17 17 17 15 14 17 20 22 22 21 21 21 17 12 13 14 14 14 14 13 12 11 11 12 12 13 13 14 15 16 16 17 18 21 26 27 27 26 25
12 14 14 14 18 19 18 20 22 24 25 26 26 23 19 15 15 16 16 17 17 16 16 17 17 17 16 15 15 15 15 15 15 16 17 18 19 19 20 20 21 23 25 26
12 12 17 20 22 24 27 30 31 28 25 21 21 20 20 20 21 26 28 32 34 35 34 33 32 31 28 25 24 24 23 23 23 23 22 21 20 19 18 18 18 17 17 17
16 21 25 29 32 37 35 32 32 33 31 29 32 36 42 46 48 43 38 34 30 25 24 24 25 25 25 26 28 30 33 35 36 36 36 35 35 35 35 35 34 32 30 28
30 37 38 38 38 35 44 50 45 44 53 55 56 60 58 51 43 32 27 27 28 30 32 35 38 39 39 39 39 38 36 34 34 35 35 34 34 34 32 31 30 31 29 26
39 41 40 41 52 67 58 55 56 65 66 70 71 63 49 33 34 32 34 39 47 58 64 63 63 61 58 56 54 53 53 51 49 46 44 42 40 37 33 31 29 26 24 23
44 48 60 71 73 74 69 72 76 77 77 74 64 49 46 43 38 45 51 60 67 71 74 72 70 65 58 54 48 42 40 41 39 37 34 32 32 31 30 28 25 22 22 20
58 81 84 91 85 81 78 83 87 88 87 79 73 60 51 47 44 54 62 72 77 82 79 76 76 74 68 61 56 52 48 46 44 43 43 42 40 39 36 32 28 24 19 18
91 96 92 89 88 86 86 93 94 92 90 89 83 83 77 62 56 56 65 75 80 82 80 78 76 76 73 72 68 63 60 59 55 50 46 43 38 35 31 27 22 19 17 17
92 91 95 98 94 90 94 93 92 94 91 85 77 73 69 63 60 60 64 72 79 79 77 75 76 78 78 78 76 71 68 65 62 57 50 44 40 34 27 22 18 16 13 10
92 98 100 100 100 98 100 98 95 93 91 88 85 84 77 73 70 67 69 76 77 79 78 77 79 80 81 79 76 72 68 66 61 51 43 38 33 27 20 15 12 10 7 7
98 98 100 100 100 99 99 98 96 96 94 93 87 84 77 76 75 75 80 84 86 86 82 80 82 82 84 78 71 69 68 64 52 41 36 29 18 12 10 8 7 7 6 6
98 100 100 99 98 100 100 100 99 97 94 90 87 85 80 78 77 79 86 89 86 86 86 85 84 82 79 72 66 70 66 51 41 33 23 16 11 8 8 7 6 6 6 5
98 96 94 93 94 94 96 98 98 97 90 87 87 85 83 79 77 79 86 89 88 86 86 85 80 73 72 68 69 64 51 43 33 22 15 11 9 8 7 6 6 6 5 5
93 79 82 94 97 96 97 96 94 88 83 84 85 84 81 78 77 77 82 86 84 83 84 83 79 70 69 72 66 53 45 33 22 14 11 10 8 7 6 6 6 6 6 6
86 88 98 100 100 98 95 90 87 85 85 87 86 84 79 75 75 77 84 88 88 87 84 80 78 72 69 64 56 47 37 25 16 12 11 9 7 7 7 6 6 6 6 5
91 94 97 94 92 91 92 87 83 83 85 84 84 79 73 69 74 81 84 87 85 81 72 68 71 73 64 58 47 38 26 18 13 12 10 8 7 8 7 7 6 6 5 5
91 94 90 87 87 89 86 85 87 88 88 86 78 68 68 72 76 79 85 85 81 74 70 73 73 68 61 49 40 29 19 14 12 11 10 8 8 8 7 7 6 5 6 6
82 85 87 88 87 88 88 87 88 86 80 73 68 69 70 70 73 82 84 82 76 72 72 72 68 59 49 39 29 19 15 12 12 11 9 8 9 8 7 7 6 6 6 6
88 88 87 86 86 84 82 81 78 75 69 64 63 64 67 75 82 80 77 76 72 71 73 69 58 46 36 26 18 14 12 11 12 11 9 9 9 8 8 7 6 7 7 6

GFSNGP_250_rhum_321.txt.gz
RH
16 19 18 18 21 21 23 22 22 23 22 20 20 20 22 22 21 20 20 19 20 20 21 20 21 21 19 18 19 18 17 17 17 17 18 18 18 18 17 17 17 16 16 17
21 19 21 20 20 19 18 22 23 24 24 23 23 22 22 23 23 24 24 23 24 25 27 27 27 25 24 21 19 20 20 21 25 28 30 29 29 30 31 31 31 30 29 26
24 23 25 28 22 24 25 24 26 33 31 27 25 26 24 24 27 28 28 29 32 33 32 32 30 29 27 26 24 22 22 23 24 24 25 25 25 25 25 27 28 28 28 27
17 19 24 24 26 26 25 25 26 27 30 34 34 32 33 31 28 28 27 29 32 33 33 32 30 28 27 27 26 25 24 23 22 22 22 24 25 26 26 25 25 24 24 24
14 15 16 18 18 18 19 18 18 17 20 23 25 28 32 34 34 32 31 30 32 32 32 30 28 26 25 25 24 22 21 20 18 18 18 17 16 16 16 16 17 18 19 19
15 18 19 19 21 19 21 21 21 19 20 20 20 20 19 20 21 21 22 22 22 21 21 20 19 18 17 16 16 15 13 9 8 9 9 9 10 10 11 12 12 12 12 12
15 16 18 20 23 26 30 30 28 26 25 23 22 19 18 16 16 16 16 16 16 17 17 16 16 15 14 12 9 9 10 10 10 10 11 11 11 12 12 12 12 12 13 13
16 18 22 25 29 34 35 33 31 27 23 22 21 19 18 18 19 21 23 22 22 21 19 16 13 11 11 11 11 12 12 12 12 12 12 12 12 12 12 12 13 13 14 14
21 23 22 23 22 22 23 21 21 22 20 20 24 27 29 32 30 27 24 19 17 14 13 13 15 15 14 14 13 14 15 14 14 13 13 14 14 13 13 13 13 14 15 15
12 13 14 16 17 19 22 25 29 36 39 37 32 28 26 22 22 22 22 25 28 30 33 35 33 29 26 24 23 23 23 23 22 20 19 18 17 18 18 18 18 18 18 18
14 14 18 22 27 34 42 43 40 34 29 28 28 30 35 38 42 48 48 47 43 34 27 24 23 23 23 23 24 24 24 24 24 23 23 23 23 24 25 27 29 29 28 27
20 25 32 40 46 45 42 36 35 40 40 47 55 63 64 62 57 52 46 33 27 26 27 30 36 40 43 46 47 46 44 42 40 41 42 42 43 42 42 41 41 40 38 38
36 42 45 46 50 43 48 50 51 62 76 75 69 70 69 62 47 39 37 34 39 45 51 61 63 62 64 65 60 58 55 51 49 46 41 37 37 36 35 35 32 30 29 27
48 53 56 55 65 66 71 73 78 82 86 87 82 75 62 58 56 52 45 52 56 55 60 61 68 71 71 73 73 71 69 64 60 58 54 52 49 47 46 43 39 36 34 31
56 62 75 87 87 85 84 91 96 99 99 97 95 86 80 77 71 65 58 53 52 53 56 60 73 78 77 75 74 75 74 73 70 67 66 63 61 59 57 53 45 37 30 25
69 90 95 97 98 94 98 100 100 100 100 100 97 96 97 94 87 75 66 57 53 58 66 70 75 77 76 74 74 74 72 71 68 62 60 58 57 56 54 49 41 34 28 23
90 97 100 99 100 100 100 100 100 100 100 99 93 86 84 82 80 74 69 63 60 62 71 78 79 78 76 78 77 76 74 72 69 62 57 60 60 58 47 39 31 24 18 14
100 100 99 98 98 97 96 99 100 100 100 96 92 90 87 84 81 77 77 74 71 71 79 84 84 84 83 84 83 81 77 68 59 56 60 62 53 46 37 28 19 14 10 8
100 98 100 99 95 100 100 97 98 97 95 93 90 88 86 82 79 78 78 77 74 75 77 85 88 87 86 86 80 74 66 59 55 59 59 50 43 33 24 16 11 9 8 8
100 98 95 97 96 97 97 95 95 92 93 92 88 88 86 82 79 80 78 75 70 70 76 86 87 85 85 82 72 62 57 59 62 59 53 44 32 20 14 11 9 8 7 6
100 94 94 93 88 93 99 98 94 88 91 89 86 85 82 77 78 79 75 72 68 74 81 83 83 79 72 66 58 60 64 65 58 49 40 30 20 14 10 9 8 7 6 6
97 92 83 80 91 99 99 98 92 90 92 89 85 82 80 82 80 75 72 70 72 77 78 80 82 72 64 63 64 66 62 55 46 36 26 17 12 10 10 9 7 7 7 6
97 95 91 90 92 91 89 88 87 91 88 83 84 85 82 79 77 73 68 70 72 70 72 81 80 71 62 64 66 64 57 46 36 25 17 12 10 10 9 8 8 8 7 6
96 93 88 89 89 88 90 87 83 83 84 88 85 79 76 73 68 65 65 65 66 71 81 79 76 72 64 67 66 57 44 33 22 15 12 11 10 10 9 8 9 8 7 6
80 82 84 84 84 88 92 94 91 89 85 82 80 77 73 64 60 61 64 76 83 81 75 66 62 64 66 65 58 43 29 20 15 12 11 11 12 10 9 9 9 8 7 6
90 91 92 93 94 94 93 91 90 86 81 75 68 65 64 67 75 87 88 80 70 61 57 57 62 64 66 58 41 27 19 15 12 11 11 12 11 11 10 10 9 8 7 6
94 95 95 95 91 85 79 74 70 63 60 60 64 71 82 89 86 78 69 63 60 58 59 63 65 60 45 34 24 18 14 12 11 11 13 12 12 11 10 10 9 8 7 7

GFSNGP_250_rhum_324.txt.gz
RH
18 18 16 16 17 20 24 25 24 23 24 23 23 23 23 22 23 22 22 21 20 18 18 17 17 17 17 17 16 16 16 17 18 18 17 16 15 15 15 15 14 14 15 17
18 18 18 21 19 17 18 21 27 26 27 26 26 25 25 26 24 23 23 23 23 22 21 21 20 18 19 20 19 19 19 20 20 20 20 19 19 19 19 19 18 16 14 14
16 16 17 20 22 24 22 23 25 27 24 24 25 26 25 24 25 25 25 25 24 23 23 22 23 22 21 20 20 21 22 22 24 24 24 23 22 22 21 20 20 19 19 18
13 14 17 18 20 24 28 28 29 31 30 28 27 27 28 31 32 29 26 26 25 26 26 26 25 24 24 23 24 25 28 30 32 32 32 32 30 27 25 24 24 23 23 23
11 13 15 18 20 21 24 28 28 30 33 36 36 36 36 35 36 36 36 35 33 33 32 28 27 28 29 28 27 28 32 34 34 33 32 31 30 30 30 30 28 27 26 26
12 14 14 16 18 19 20 21 23 25 27 28 29 30 29 28 26 26 26 28 30 32 32 33 33 32 31 30 29 29 30 32 32 31 28 26 24 23 23 22 22 23 23 24
13 13 14 17 18 20 22 22 23 24 25 26 26 25 25 26 26 24 22 20 20 20 20 20 21 22 23 23 22 21 21 21 20 20 19 18 17 17 16 16 16 15 16 16
14 15 16 18 20 21 21 23 24 25 26 28 32 33 31 31 29 27 26 25 24 22 20 19 18 17 16 16 16 16 16 16 16 16 15 13 11 10 11 11 12 12 12 12
17 18 19 21 22 23 24 27 32 35 36 38 37 36 32 29 28 27 27 28 31 31 30 29 27 26 24 21 17 15 13 11 10 10 10 12 13 13 12 12 12 12 12 13
19 22 24 27 32 36 36 37 36 33 28 28 29 29 30 34 41 42 38 35 31 27 24 22 23 25 26 26 24 22 20 18 18 18 19 19 18 18 18 17 16 15 15 15
14 16 18 20 22 24 25 26 31 36 42 44 44 43 40 38 33 31 29 32 37 42 44 42 37 31 25 23 23 23 24 26 26 26 26 25 25 25 24 23 22 21 20 20
16 18 21 26 33 41 51 56 55 52 49 43 38 35 36 39 46 55 60 60 58 49 36 32 31 32 33 36 36 37 42 45 42 38 34 34 33 31 30 29 28 27 27 29
31 39 47 50 58 58 59 60 51 48 49 56 63 68 70 70 72 69 63 48 42 37 39 42 41 41 45 48 54 57 57 57 55 53 51 48 44 40 38 36 34 34 33 31
47 54 55 64 68 68 63 65 65 66 74 78 83 85 84 77 67 61 63 59 50 46 45 42 42 44 48 52 62 69 69 67 66 64 63 60 56 53 51 48 48 46 44 43
56 66 67 75 78 78 78 85 96 99 98 98 94 93 88 84 80 75 70 69 66 57 55 51 51 58 66 70 71 72 72 70 69 68 66 64 62 58 53 48 44 41 42 44
67 77 86 88 90 92 96 99 98 100 99 98 99 100 100 99 98 96 88 79 74 70 59 53 55 63 73 79 81 78 75 74 72 67 67 66 62 58 50 44 42 45 43 38
88 99 99 94 92 94 99 99 100 100 100 100 100 100 97 94 91 88 86 83 76 66 61 60 62 66 71 78 80 78 76 76 76 72 66 61 56 53 49 52 52 45 36 28
99 97 96 100 100 100 98 99 100 100 100 100 99 97 96 91 85 81 79 77 75 68 65 62 62 65 69 75 80 83 81 77 72 66 60 55 53 53 55 53 42 34 27 21
98 99 100 95 95 94 94 100 100 100 100 96 93 92 91 89 85 81 77 75 74 75 70 64 63 63 69 76 77 79 78 70 62 56 56 64 66 63 55 45 34 25 18 11
97 98 100 98 93 93 96 97 99 97 91 89 88 91 94 92 88 86 80 80 79 78 72 68 61 64 70 72 69 73 72 69 60 61 66 64 57 49 38 29 21 15 10 8
98 95 92 95 98 96 89 99 99 98 94 93 93 91 90 85 80 79 80 78 75 73 68 64 63 64 64 66 73 74 70 66 64 62 60 55 44 29 20 15 12 10 9 9
96 98 96 94 90 86 85 87 90 91 93 94 89 86 83 80 81 82 80 76 72 69 64 62 61 62 67 76 72 65 60 59 59 59 55 39 22 16 14 11 10 10 9 8
87 87 87 84 83 84 84 84 88 90 91 90 88 88 84 83 82 79 76 72 66 61 61 65 74 78 74 67 58 55 53 57 60 51 37 20 15 12 10 9 9 10 10 9
84 90 92 94 94 93 93 93 88 90 92 90 87 83 81 78 74 69 64 61 64 70 83 85 82 70 61 57 56 56 59 57 45 30 18 15 11 10 10 10 10 11 10 10
88 90 91 93 95 97 96 95 93 90 87 84 80 76 69 62 57 59 63 70 77 80 77 70 65 60 58 57 60 60 54 41 25 17 14 12 11 10 11 12 12 11 10 10
96 93 89 85 84 83 83 83 84 81 76 68 62 58 57 60 67 74 77 76 73 68 66 61 59 58 60 61 57 45 31 21 16 14 12 12 11 11 13 12 12 11 11 10
75 77 76 76 76 74 70 67 65 65 67 68 71 77 82 82 79 75 72 68 66 65 64 65 64 62 58 46 32 23 18 15 14 13 12 12 12 14 13 12 12 12 11 10

GFSNGP_250_rhum_330.txt.gz
RH
11 13 16 16 19 20 21 22 22 20 20 21 22 25 26 27 28 28 28 26 24 24 22 21 21 22 22 22 24 25 24 24 25 27 27 31 43 63 80 90 94 96 100 99
9 11 14 17 18 21 23 24 22 22 22 24 24 24 26 26 28 30 30 30 28 27 26 24 22 22 22 21 21 22 22 20 20 20 23 27 31 35 48 68 80 77 70 68
9 10 13 15 16 20 23 24 22 23 22 23 26 26 27 26 27 29 30 30 30 30 28 27 25 23 22 22 22 21 21 21 20 20 20 22 24 26 29 32 34 33 32 33
7 8 11 12 13 16 20 26 29 26 24 26 28 29 28 27 27 29 29 29 30 30 30 30 29 28 27 26 26 25 24 24 23 22 22 21 20 20 20 21 22 24 25 26
7 8 9 11 11 13 15 19 25 28 27 28 30 31 31 28 26 26 27 30 31 32 31 31 31 31 32 32 32 31 31 30 28 27 26 25 24 24 23 22 21 20 19 19
8 8 9 10 12 13 14 16 19 22 25 26 28 30 30 34 36 33 32 32 33 32 33 34 35 36 36 35 34 33 32 31 30 30 30 28 28 27 26 25 25 25 24 23
10 10 11 11 11 13 15 16 18 20 22 24 26 28 28 27 34 38 38 36 36 38 38 35 34 34 35 36 37 36 35 34 34 33 32 31 30 29 28 27 26 25 25 25
10 11 11 12 13 14 15 17 18 20 22 24 26 27 28 29 31 41 41 39 41 43 44 44 43 43 43 44 43 42 41 40 39 38 39 39 38 37 35 32 30 29 29 28
12 12 13 14 16 17 19 21 23 24 25 25 26 26 27 29 31 33 35 34 31 31 35 37 35 32 32 31 30 29 29 28 27 26 25 23 21 21 21 22 25 27 28 30
16 15 16 17 18 19 20 22 24 26 27 28 29 31 32 32 33 32 32 33 34 32 32 33 33 33 33 34 34 33 32 30 28 27 26 25 23 22 21 20 19 18 18 18
19 20 20 20 21 22 22 24 25 28 30 31 33 34 34 35 36 37 38 40 42 45 49 52 51 46 42 40 38 37 36 34 33 32 30 28 27 26 25 23 22 21 21 20
16 22 27 30 31 30 29 29 29 31 32 34 36 41 46 50 54 56 56 56 55 54 53 51 48 47 45 43 40 38 38 38 36 33 31 30 28 28 28 29 28 28 28 29
18 20 25 30 34 40 47 50 49 49 47 47 48 49 50 51 53 53 53 52 50 50 51 49 48 51 53 51 44 40 38 36 34 32 31 30 30 30 31 31 33 36 39 40
39 42 46 50 52 57 60 62 62 61 60 58 58 57 55 53 52 53 55 57 62 65 63 57 54 54 52 47 42 40 38 37 35 32 30 31 34 37 39 39 37 36 39 40
59 61 61 63 65 66 65 63 60 58 59 64 67 73 82 86 84 81 75 72 71 73 76 72 67 62 56 52 51 53 52 48 41 37 36 37 40 44 47 50 52 52 52 50
58 60 66 70 74 77 79 80 84 89 92 97 98 98 98 98 97 96 95 92 89 85 83 81 77 71 67 67 65 63 58 48 44 43 43 42 43 45 49 53 54 54 53 53
84 90 96 94 92 94 96 95 97 99 99 99 98 98 97 96 95 95 95 94 94 93 92 88 84 80 74 70 65 62 59 55 52 50 47 45 44 44 51 56 54 51 48 44
84 94 95 92 85 90 94 93 94 98 100 100 100 100 100 100 99 98 96 94 93 90 88 83 83 79 74 68 65 62 58 55 52 49 46 44 45 48 51 50 48 49 47 43
78 84 82 84 86 89 92 94 96 97 94 93 94 96 96 93 90 87 84 81 80 81 81 76 72 68 66 64 63 61 59 54 51 49 46 44 45 48 52 56 53 47 40 35
89 84 88 89 92 94 96 96 98 99 98 100 99 99 99 95 87 84 81 80 80 78 74 73 69 65 63 65 64 61 57 51 48 47 46 50 58 57 53 45 42 38 36 36
91 90 89 83 85 87 88 88 88 92 90 86 86 83 78 74 74 75 76 75 79 71 72 72 70 69 67 66 60 52 48 46 48 53 56 58 54 47 43 41 41 40 41 40
66 74 81 85 90 90 82 82 80 78 76 77 78 77 76 77 79 78 78 78 77 76 72 70 65 57 50 47 46 47 51 58 60 57 53 50 47 46 48 47 45 43 38 25
60 68 72 75 77 81 83 78 81 82 82 82 82 83 82 82 80 78 74 70 64 60 54 53 50 51 54 58 63 62 59 57 54 53 54 55 53 52 47 40 33 24 16 14
70 72 72 74 78 80 84 82 80 80 79 78 75 71 68 66 68 71 74 76 77 76 74 75 71 70 69 67 66 64 64 61 55 49 42 36 31 27 22 18 16 14 12 10
73 74 75 75 74 74 75 75 74 75 78 83 88 92 93 92 91 88 85 84 84 82 81 78 72 69 66 65 61 54 46 37 32 28 25 22 20 19 17 14 12 11 11 10
79 77 80 85 87 90 94 96 98 98 97 96 95 94 94 92 90 88 84 80 76 71 68 62 54 50 43 39 35 32 29 25 24 22 21 18 18 16 13 12 11 10 10 9
91 94 93 91 91 93 95 95 96 97 96 96 96 94 90 85 81 75 69 63 57 53 50 49 46 41 35 31 26 24 22 21 20 18 17 16 14 13 11 10 10 9 9 10

GFSNGP_250_rhum_333.txt.gz
RH
9 10 12 14 16 20 22 20 20 20 21 26 31 33 33 32 31 28 26 26 28 29 27 26 25 25 25 25 26 27 28 28 27 27 28 29 30 33 40 55 65 77 96 100
8 8 10 12 14 17 21 25 24 22 22 23 25 28 30 30 28 27 26 26 26 27 26 27 26 25 24 25 25 24 24 25 26 26 26 26 27 27 29 31 33 38 55 73
9 11 11 12 13 15 19 26 29 28 26 24 24 24 26 26 27 27 27 26 27 27 28 28 29 28 26 25 25 24 23 23 23 24 24 24 24 26 27 29 30 31 34 37
8 8 8 9 11 12 16 22 28 29 29 28 26 25 24 26 28 29 30 29 28 28 28 29 30 30 30 29 28 27 26 23 22 22 22 22 22 23 24 24 24 24 25 25
7 7 8 8 8 11 13 17 23 27 29 28 29 30 29 27 32 32 31 30 29 29 29 29 28 29 29 30 30 30 29 28 26 24 23 22 22 22 22 21 21 21 20 20
8 8 8 9 9 10 13 14 19 24 29 30 30 33 32 29 30 32 33 35 35 34 32 31 31 30 30 31 31 31 30 30 30 29 28 27 26 26 26 26 25 24 24 23
9 9 9 8 9 10 12 14 17 20 25 28 30 33 37 39 36 36 34 33 33 34 34 34 34 34 34 34 34 34 34 33 32 32 31 30 29 28 28 28 27 26 26 26
11 10 11 11 11 11 12 13 15 18 22 26 30 31 33 34 37 38 42 40 38 39 39 37 37 40 41 42 41 40 39 38 37 37 36 36 35 34 33 32 30 29 28 27
13 13 12 13 14 14 14 14 15 17 19 23 26 29 31 31 31 32 33 35 39 40 46 52 52 52 51 50 49 49 48 47 48 48 46 44 42 40 38 36 34 32 30 30
14 14 15 15 15 15 16 16 17 18 20 22 24 26 28 30 31 32 32 33 34 32 31 36 48 50 46 42 41 42 43 43 41 39 37 35 33 32 31 31 30 28 27 25
19 18 18 17 17 18 20 22 23 24 26 27 28 30 31 33 33 34 33 32 32 33 34 33 32 31 31 32 32 33 33 32 33 33 34 34 35 34 32 30 29 27 26 24
17 22 22 23 22 21 23 25 27 28 29 31 33 34 35 36 37 38 38 39 38 38 38 38 39 40 42 44 47 49 50 47 45 42 39 38 36 35 33 31 30 28 28 26
18 20 26 32 37 35 30 27 28 30 33 34 36 36 38 40 41 41 43 45 48 51 56 59 60 59 57 54 51 48 46 45 43 41 40 39 37 35 32 32 30 28 27 27
35 32 32 33 36 41 44 47 49 49 50 52 55 56 57 59 60 60 61 61 60 59 56 52 51 50 50 50 50 52 52 50 47 44 42 41 39 37 35 33 31 31 31 31
57 63 64 65 66 66 64 65 65 65 64 63 61 62 62 60 60 60 62 63 63 63 65 67 70 70 68 65 61 60 57 53 49 44 45 46 44 42 40 35 32 30 31 34
54 57 61 62 63 64 66 67 71 72 73 77 85 90 91 92 93 94 95 95 91 88 85 87 88 88 84 76 70 66 64 64 63 61 59 55 50 45 42 39 36 34 32 34
62 68 74 75 77 80 85 90 94 96 96 95 95 96 96 97 98 99 99 99 98 96 94 92 87 85 87 79 77 75 73 70 64 60 58 54 51 47 44 41 37 37 37 36
68 82 85 88 85 88 91 89 89 89 92 93 94 96 99 100 99 98 96 96 97 98 98 94 87 87 87 82 78 76 72 68 64 59 59 56 53 50 48 42 38 36 37 40
81 76 78 81 81 80 81 86 89 88 89 93 93 92 92 91 89 89 89 87 85 82 84 76 76 75 75 72 70 71 68 65 60 57 57 56 53 48 44 41 41 42 44 46
72 81 88 90 86 86 86 86 88 87 87 93 93 92 92 93 87 85 80 76 74 76 73 72 74 73 71 69 68 64 66 66 64 61 58 53 48 45 44 45 50 50 47 42
57 67 74 80 85 86 86 84 86 91 88 88 88 86 82 83 85 84 80 75 83 81 78 83 85 83 81 80 77 69 69 64 56 50 48 46 45 49 52 53 50 46 42 40
61 59 60 68 76 79 76 81 85 86 86 85 87 88 86 87 87 86 86 85 80 82 70 70 72 66 63 62 57 58 56 55 58 63 64 62 60 58 56 56 56 52 47 41
64 69 71 73 75 79 78 78 79 83 85 83 83 82 81 80 78 76 75 80 80 87 85 90 87 84 83 78 78 79 72 67 65 64 62 60 59 57 52 45 37 30 24 20
74 68 70 72 75 79 81 80 80 79 80 81 84 87 92 95 97 95 94 93 92 89 87 87 81 79 77 72 71 69 64 58 52 46 39 36 31 28 25 24 22 20 19 16
75 82 87 88 89 90 90 91 93 95 96 98 97 96 94 92 92 93 92 91 88 83 79 75 69 63 58 54 50 46 44 41 37 32 28 26 24 23 21 20 18 17 15 14
58 73 86 90 90 93 95 96 98 97 97 97 95 92 90 91 91 90 87 88 86 79 72 64 55 52 50 47 43 39 36 32 28 26 25 24 22 21 21 19 17 15 14 12
42 54 63 79 86 87 89 90 89 88 89 89 89 88 88 88 88 87 84 79 71 62 52 47 43 40 38 36 34 33 30 28 26 24 24 22 20 19 17 15 13 11 10 9

GFSNGP_250_rhum_339.txt.gz
RH
10 11 12 13 13 13 18 16 16 17 20 24 28 30 31 33 35 36 39 42 48 63 73 80 88 91 90 95 100 100 100 100 100 100 100 100 100 100 100 98 97 98 99 100
9 11 13 14 14 14 12 16 17 19 24 25 29 31 34 35 36 39 41 43 44 47 50 55 66 73 75 86 89 92 92 89 86 83 84 85 87 91 94 94 89 78 68 66
9 11 13 15 16 15 17 15 16 20 25 27 29 34 34 36 39 41 42 44 46 49 51 51 53 54 55 54 53 52 51 53 61 71 73 66 56 53 53 54 60 72 82 88
8 10 11 14 16 17 17 16 17 20 25 29 31 32 36 37 38 40 41 42 42 44 47 50 50 50 49 51 52 54 59 55 47 46 45 45 43 41 39 38 44 51 49 39
9 10 12 12 11 12 14 16 17 18 23 27 33 34 33 35 36 38 39 40 40 42 43 44 45 46 48 48 47 46 45 45 44 44 42 39 36 34 34 34 33 31 29 27
9 10 10 10 10 12 13 14 18 19 19 25 28 33 35 35 35 34 36 36 37 38 39 40 42 43 43 43 42 42 42 42 41 41 39 35 33 33 33 32 30 28 27 26
9 9 9 9 10 10 11 14 18 21 18 17 19 24 34 36 36 34 34 34 35 36 37 39 40 40 40 40 40 39 38 38 38 37 34 32 31 32 33 32 30 29 28 27
10 10 10 9 9 8 10 12 14 18 18 16 16 18 27 32 37 38 37 36 34 35 36 35 35 37 38 37 36 36 36 36 35 34 32 30 30 30 31 32 32 32 31 30
12 11 10 10 10 9 9 11 12 14 16 18 18 20 25 26 29 34 39 42 40 37 35 34 33 32 31 30 30 30 30 30 29 29 28 28 28 29 29 30 30 30 31 31
14 13 13 12 11 11 12 11 12 12 14 16 19 21 24 29 32 35 37 40 42 43 43 40 36 34 32 31 30 30 30 30 30 30 31 31 30 29 29 29 29 29 29 29
16 15 15 14 14 14 12 13 14 14 15 15 16 19 20 22 26 31 35 39 41 43 45 45 45 44 42 41 39 39 38 37 36 36 35 34 34 33 32 31 31 31 32 32
19 18 19 18 17 17 18 16 15 15 15 17 20 21 22 23 25 27 31 34 37 40 45 49 48 46 46 46 46 46 47 49 49 47 46 44 42 42 42 43 43 42 41 42
29 21 22 25 21 21 23 22 21 19 18 19 20 20 21 22 25 27 30 33 36 38 40 45 49 50 50 51 52 52 51 48 46 45 43 42 40 37 34 34 34 34 36 34
28 30 33 26 29 30 26 27 29 30 29 27 27 26 25 25 26 28 30 32 34 37 39 39 39 40 40 40 40 40 39 39 39 38 38 39 39 39 39 38 38 38 41 45
36 36 32 36 40 40 37 39 38 34 34 35 38 38 37 38 38 39 38 38 37 37 38 39 40 41 43 45 47 48 50 50 51 52 53 55 58 61 60 57 54 51 48 46
37 42 45 42 44 42 43 43 45 48 51 53 52 50 48 48 48 49 50 52 53 53 53 55 56 59 63 65 67 69 70 69 66 64 62 60 59 56 54 53 52 51 50 48
44 41 44 47 48 51 60 62 63 63 53 48 47 48 49 52 55 57 60 62 65 68 70 71 69 69 71 70 69 71 70 66 64 63 64 66 68 69 66 63 62 60 57 55
42 47 45 49 52 53 56 59 65 71 76 75 76 76 76 76 75 76 77 77 78 78 78 78 74 78 82 83 85 84 82 79 79 78 78 76 74 70 66 63 60 57 55 53
37 43 50 50 52 57 60 65 70 70 71 71 72 73 75 77 80 83 86 85 85 84 87 81 79 78 82 85 85 79 74 70 68 67 64 62 60 59 58 58 56 53 50 48
38 38 45 52 54 55 59 68 70 72 75 78 78 80 81 80 80 85 85 85 84 85 83 75 74 71 70 69 66 61 58 59 61 62 62 64 64 65 64 60 58 54 49 46
36 37 39 45 56 55 60 65 70 70 71 79 82 82 80 80 78 79 80 80 84 86 74 73 73 74 76 76 79 74 76 78 74 67 62 60 58 58 57 56 57 58 56 54
34 35 36 39 43 56 58 65 65 68 71 74 81 81 80 82 79 79 80 77 82 83 81 83 82 77 71 74 71 74 75 79 77 75 74 72 69 65 61 56 52 47 43 39
30 32 34 36 39 40 49 65 66 70 68 69 74 78 80 80 79 78 76 74 74 79 79 86 88 88 90 89 84 84 80 75 73 70 66 61 55 50 45 42 39 36 34 34
28 28 30 33 36 38 39 42 62 73 73 70 70 72 76 80 81 83 87 89 88 90 86 87 84 81 81 76 72 70 68 64 59 55 51 45 41 39 37 36 35 33 32 30
25 26 28 29 31 35 38 38 39 48 63 73 74 74 76 82 85 81 83 82 81 80 78 76 74 73 72 70 65 60 56 52 48 46 41 37 35 34 32 31 30 29 29 27
23 24 27 28 28 30 33 36 38 39 43 50 60 66 69 71 73 74 73 72 71 71 71 70 65 62 58 50 45 42 42 41 39 38 36 33 31 29 28 27 26 25 24 23
22 23 25 27 28 29 30 31 33 34 36 38 40 44 48 53 56 59 59 57 56 56 54 52 49 46 43 40 39 38 36 35 33 32 32 31 27 25 25 24 23 22 20 18